TimeEDT,TemperatureF,Dew PointF,Humidity,Sea Level PressureIn,VisibilityMPH,Wind Direction,Wind SpeedMPH,Gust SpeedMPH,PrecipitationIn,Events,Conditions,WindDirDegrees,DateUTC
12:14 AM,56.5,41.9,58,29.84,10.0,SW,17.3,23.0,N/A,,Overcast,220,2013-10-21 04:14:00
12:34 AM,56.3,42.1,59,29.83,10.0,SW,10.4,20.7,N/A,,Mostly Cloudy,220,2013-10-21 04:34:00
12:55 AM,55.8,42.1,60,29.83,10.0,SW,13.8,19.6,N/A,,Scattered Clouds,220,2013-10-21 04:55:00
1:14 AM,55.4,42.1,61,29.83,10.0,SSW,12.7,-,N/A,,Scattered Clouds,210,2013-10-21 05:14:00
1:34 AM,54.7,42.6,64,29.83,10.0,SSW,11.5,-,N/A,,Clear,210,2013-10-21 05:34:00
1:54 AM,54.1,42.8,66,29.83,10.0,SSW,10.4,-,N/A,,Clear,210,2013-10-21 05:54:00
2:14 AM,54.0,42.8,66,29.83,10.0,SSW,8.1,-,N/A,,Scattered Clouds,210,2013-10-21 06:14:00
2:35 AM,54.1,43.0,66,29.84,10.0,SSW,9.2,-,N/A,,Mostly Cloudy,210,2013-10-21 06:35:00
2:54 AM,54.0,43.3,67,29.84,10.0,SSW,8.1,-,N/A,,Overcast,210,2013-10-21 06:54:00
3:14 AM,54.5,43.7,67,29.84,10.0,SSW,10.4,-,N/A,Rain,Light Rain,210,2013-10-21 07:14:00
3:35 AM,53.1,45.1,74,29.84,10.0,SSW,8.1,-,N/A,Rain,Rain,210,2013-10-21 07:35:00
3:54 AM,52.9,45.5,76,29.84,10.0,SW,6.9,-,N/A,Rain,Rain,220,2013-10-21 07:54:00
4:14 AM,53.2,45.5,75,29.84,10.0,SW,5.8,-,N/A,Rain,Light Rain,220,2013-10-21 08:14:00
4:34 AM,53.1,45.7,76,29.83,10.0,SW,5.8,-,N/A,Rain,Light Rain,220,2013-10-21 08:34:00
4:54 AM,53.1,45.5,75,29.83,10.0,SW,5.8,-,N/A,,Overcast,220,2013-10-21 08:54:00
5:15 AM,52.7,45.7,77,29.84,10.0,SW,6.9,-,N/A,Rain,Light Rain,220,2013-10-21 09:15:00
5:34 AM,53.1,45.5,75,29.83,10.0,Calm,Calm,-,N/A,Rain,Rain,0,2013-10-21 09:34:00
5:55 AM,52.0,45.9,80,29.83,10.0,SW,3.5,-,N/A,Rain,Rain,220,2013-10-21 09:55:00
6:15 AM,51.1,46.4,84,29.84,10.0,SW,3.5,-,N/A,,Overcast,220,2013-10-21 10:15:00
6:34 AM,51.8,46.0,81,29.84,10.0,SSW,3.5,-,N/A,,Overcast,210,2013-10-21 10:34:00
6:55 AM,51.6,46.4,82,29.85,10.0,Calm,Calm,-,N/A,,Overcast,0,2013-10-21 10:55:00
7:15 AM,52.0,45.7,79,29.85,10.0,SW,3.5,-,N/A,,Overcast,220,2013-10-21 11:15:00
7:34 AM,51.3,46.2,83,29.85,10.0,SSW,5.8,-,N/A,,Overcast,200,2013-10-21 11:34:00
7:55 AM,51.8,45.7,80,29.85,10.0,SSW,6.9,-,N/A,Rain,Light Rain,200,2013-10-21 11:55:00
8:14 AM,51.1,45.7,82,29.85,10.0,SSW,5.8,-,N/A,,Drizzle,200,2013-10-21 12:14:00
8:34 AM,50.5,45.7,83,29.85,10.0,SSW,8.1,-,N/A,Rain,Rain,200,2013-10-21 12:34:00
8:55 AM,50.2,45.9,85,29.86,10.0,SSW,8.1,-,N/A,Rain,Light Rain,210,2013-10-21 12:55:00
9:14 AM,50.2,46.0,86,29.86,10.0,SW,8.1,-,N/A,,Drizzle,220,2013-10-21 13:14:00
9:34 AM,50.0,46.4,87,29.87,7.0,SW,5.8,-,N/A,Rain,Light Rain,220,2013-10-21 13:34:00
9:55 AM,50.2,46.8,88,29.87,10.0,SSW,8.1,-,N/A,,Overcast,200,2013-10-21 13:55:00
10:14 AM,50.5,47.3,89,29.87,10.0,SSW,8.1,-,N/A,,Overcast,210,2013-10-21 14:14:00
10:34 AM,50.9,47.5,88,29.87,10.0,SSW,10.4,-,N/A,,Overcast,210,2013-10-21 14:34:00
10:54 AM,51.1,47.3,87,29.87,10.0,SSW,10.4,-,N/A,,Overcast,210,2013-10-21 14:54:00
11:14 AM,51.4,47.7,87,29.87,10.0,SSW,10.4,-,N/A,,Overcast,210,2013-10-21 15:14:00
11:35 AM,52.0,47.7,85,29.87,10.0,SW,10.4,16.1,N/A,,Overcast,220,2013-10-21 15:35:00
11:54 AM,52.9,47.5,82,29.87,10.0,SW,11.5,17.3,N/A,,Overcast,220,2013-10-21 15:54:00
12:14 PM,53.6,46.2,76,29.87,10.0,WSW,8.1,16.1,N/A,,Overcast,250,2013-10-21 16:14:00
12:35 PM,50.0,44.6,82,29.87,10.0,West,11.5,-,N/A,,Overcast,280,2013-10-21 16:35:00
12:54 PM,50.7,44.6,80,29.87,10.0,West,12.7,-,N/A,,Overcast,280,2013-10-21 16:54:00
1:15 PM,49.1,43.7,82,29.88,10.0,West,11.5,-,N/A,,Overcast,270,2013-10-21 17:15:00
1:35 PM,49.5,43.2,79,29.87,10.0,WNW,15.0,18.4,N/A,,Overcast,300,2013-10-21 17:35:00
1:54 PM,48.2,42.3,80,29.87,10.0,West,12.7,18.4,N/A,,Overcast,280,2013-10-21 17:54:00
2:15 PM,48.2,41.4,77,29.87,10.0,West,10.4,-,N/A,,Overcast,280,2013-10-21 18:15:00
2:35 PM,48.7,41.7,77,29.87,10.0,West,12.7,17.3,N/A,,Overcast,270,2013-10-21 18:35:00
2:54 PM,48.2,41.2,77,29.86,10.0,West,9.2,-,N/A,,Overcast,270,2013-10-21 18:54:00
3:15 PM,49.6,42.1,75,29.86,10.0,West,6.9,-,N/A,,Overcast,280,2013-10-21 19:15:00
3:34 PM,49.3,41.0,73,29.86,10.0,WNW,10.4,-,N/A,,Overcast,300,2013-10-21 19:34:00
3:54 PM,48.7,40.5,73,29.86,10.0,West,15.0,18.4,N/A,,Overcast,280,2013-10-21 19:54:00
4:15 PM,48.2,39.4,72,29.87,10.0,West,11.5,-,N/A,,Overcast,280,2013-10-21 20:15:00
4:34 PM,47.7,38.3,70,29.87,10.0,West,15.0,19.6,N/A,,Overcast,280,2013-10-21 20:34:00
4:54 PM,47.3,38.3,71,29.87,10.0,West,9.2,-,N/A,,Overcast,270,2013-10-21 20:54:00
5:15 PM,46.9,38.3,72,29.87,10.0,WNW,10.4,-,N/A,,Overcast,290,2013-10-21 21:15:00
5:34 PM,46.4,37.9,72,29.88,10.0,West,11.5,-,N/A,,Overcast,280,2013-10-21 21:34:00
5:55 PM,46.4,37.4,71,29.88,10.0,West,12.7,-,N/A,,Overcast,280,2013-10-21 21:55:00
6:15 PM,45.5,35.8,69,29.89,10.0,West,5.8,-,N/A,,Scattered Clouds,270,2013-10-21 22:15:00
6:34 PM,43.9,35.6,73,29.89,10.0,West,5.8,-,N/A,,Scattered Clouds,280,2013-10-21 22:34:00
6:55 PM,44.1,34.7,70,29.90,10.0,West,5.8,-,N/A,,Scattered Clouds,260,2013-10-21 22:55:00
7:15 PM,43.9,34.0,68,29.90,10.0,WSW,4.6,-,N/A,,Mostly Cloudy,250,2013-10-21 23:15:00
7:34 PM,43.9,34.5,70,29.90,10.0,SW,3.5,-,N/A,,Overcast,220,2013-10-21 23:34:00
7:55 PM,44.1,35.1,71,29.90,10.0,SW,4.6,-,N/A,,Overcast,220,2013-10-21 23:55:00
8:14 PM,44.1,35.1,71,29.90,10.0,SW,4.6,-,N/A,,Overcast,220,2013-10-22 00:14:00
8:34 PM,44.2,34.7,69,29.90,10.0,WSW,5.8,-,N/A,,Overcast,240,2013-10-22 00:34:00
8:55 PM,45.0,33.4,64,29.90,10.0,West,9.2,-,N/A,,Overcast,260,2013-10-22 00:55:00
9:14 PM,45.1,34.0,65,29.90,10.0,West,16.1,-,N/A,,Overcast,270,2013-10-22 01:14:00
9:35 PM,44.6,32.5,63,29.90,10.0,West,17.3,27.6,N/A,,Overcast,280,2013-10-22 01:35:00
9:54 PM,43.7,31.8,63,29.91,10.0,West,16.1,27.6,N/A,,Overcast,280,2013-10-22 01:54:00
10:14 PM,43.2,30.7,62,29.91,10.0,WNW,12.7,20.7,N/A,,Overcast,290,2013-10-22 02:14:00
10:35 PM,42.4,29.5,60,29.92,10.0,West,16.1,21.9,N/A,,Overcast,280,2013-10-22 02:35:00
10:54 PM,42.1,28.9,60,29.92,10.0,WNW,13.8,23.0,N/A,,Overcast,290,2013-10-22 02:54:00
11:14 PM,41.9,29.1,61,29.92,10.0,WNW,12.7,20.7,N/A,,Overcast,290,2013-10-22 03:14:00
11:35 PM,41.4,28.6,60,29.92,10.0,West,12.7,19.6,N/A,,Overcast,280,2013-10-22 03:35:00
11:54 PM,41.2,28.2,60,29.92,10.0,West,10.4,20.7,N/A,,Overcast,280,2013-10-22 03:54:00